Location: London
(51.5074°N, 0.1278°W)
Time: 22:36:18
(UTC+01:00)

DELFI C3 - Pass Details

Date: 03 October 2020
Orbit: 535 x 549 km, 97.4° (Epoch: 22 October)

Event Time Altitude Azimuth Distance (km) Brightness Sun altitude
Exits shadow 21:16:05 30° 229° (SW) 1,005 ? -25.5°
Maximum altitude 21:17:10 35° 263° (W) 888 ? -25.7°
Drops below altitude 10° 21:20:50 10° 331° (NNW) 1,831 ? -26.2°
Sets 21:23:07 0° 340° (NNW) 2,732 ? -26.5°
